Location: Ponte Samoggia
(44.5667°N, 11.1333°E)
Time: 16:50:44
(UTC+00:00)

Cosmos 2297 - Pass Details

Date: 26 May 2022
Orbit: 834 x 859 km, 71.0° (Epoch: 06 July)

Event Time Altitude Azimuth Distance (km) Brightness Sun altitude
Rises 01:26:41 0° 333° (NNW) 3,444 7.3 -17.5°
Reaches altitude 10° 01:29:09 10° 333° (NNW) 2,504 6.5 -17.3°
Maximum altitude 01:34:55 82° 247° (WSW) 873 3.7 -16.7°
Drops below altitude 10° 01:40:38 10° 160° (SSE) 2,483 5.8 -16.1°
Enters shadow 01:41:53 - 160° (SSE) 2,957 6.2 -16.0°
